YUNHAI-2 4 (43912 NORAD) Tracking and Keplerian Element Data

This shows tracking and keplerian element data for the satellite.

Feedback or suggestion? Click here.




ElementValue
Catalog43912
NameYUNHAI-2 4
Epoch Orbit394
Epoch Day27.65749165
Epoch Year2019
RAAN77.3497
Inclination50.0117
Eccentricity0.0006677
Argument of Perigee350.119
Mean Anonmoly9.9554
Mean Motion13.4433832
Decay Rate-1.04E-06
L11 43912U 18112D 19027.65749165 -.00000104 00000-0 43668-4 0 9991
L22 43912 50.0117 77.3497 0006677 350.1190 9.9554 13.44338320 3946

Live tracking and technical data element details for YUNHAI-2 4 (NORAD 43912). YUNHAI-2 4 can be tracked NOW for your location showing map with azimuth and elevation plus other details from your city location.

Track the satellite on the map from your city or location and see movement details for azimuth, elevation, latitude, longitude, range, height, and movement on the map or in text.







IsCatalogInMostPopularTable: catalog: 43912, numindb: 69
Update: records affected: 1



GetName: 43912 YUNHAI-2 4

Hit Count: updated at: Thu, 23 May 2019 15:13:53 GMT